Preview of NWS' New Version of Forecast
This preview is not operational and should not be used for support decisions.

Regional Weather Roundup (RWR)

Issued by Newport/Morehead City, NC (MHX)

                            
000
ASUS42 KMHX 220426
RWRMHX
WEATHER ROUNDUP FOR EASTERN NORTH CAROLINA
NATIONAL WEATHER SERVICE NEWPORT/MOREHEAD CITY NC
1100 PM EST MON JAN 21 2019

NOTE: "FAIR" INDICATES FEW OR NO CLOUDS BELOW 12,000 FEET
WITH NO SIGNIFICANT WEATHER AND/OR OBSTRUCTIONS TO VISIBILITY

NCZ015>017-031-032-045>047-102-103-220500-
NORTH COAST
  
CITY           SKY/WX    TMP DP  RH WIND       PRES   REMARKS
EDENTON        FAIR      23  13  65 CALM      30.58R                  
ELIZABETH CITY FAIR      26   3  37 N13       30.56R WCI  15          
KITTY HAWK     FAIR      26   4  40 NW5       30.53S                  
MANTEO         FAIR      27  -1  30 N10G23    30.55R WCI  17          

$$

NCZ045>047-081-094-103-104-220500-
CENTRAL COAST
  
CITY           SKY/WX    TMP DP  RH WIND       PRES   REMARKS
FRISCO         FAIR      31   5  33 VRB7G20   30.54R                  

$$

NCZ095-097-098-100-101-220500-
SOUTHERN COAST
  
CITY           SKY/WX    TMP DP  RH WIND       PRES   REMARKS
BEAUFORT       FAIR      24   4  42 N5        30.57R                  
CEDAR ISLAND   NOT AVBL                                               
JACKSONVILLE   FAIR      25   5  42 NW3       30.57R                  
PINEY ISLAND   FAIR      29   1  30 N15G22    30.56R WCI  18          
WILMINGTON     FAIR      22  11  62 CALM      30.58R                  


$$

NCZ011>013-027>030-043-044-078>080-089-090>093-098-220500-
COASTAL PLAIN
  
CITY           SKY/WX    TMP DP  RH WIND       PRES   REMARKS
AHOSKIE        FAIR      17  11  77 CALM      30.58R                  
CLINTON        FAIR      22  14  72 CALM      30.58R                  
ELIZABETHTOWN  FAIR      22  10  58 CALM      30.58R                  
GOLDSBORO      FAIR      19   7  59 CALM      30.55R                  
GREENVILLE     FAIR      19  10  68 CALM      30.57R                  
HAVELOCK       FAIR      26   8  46 NW6       30.57R                  
KENANSVILLE    FAIR      18  14  86 CALM      30.58R                  
KINSTON        FAIR      17  13  84 CALM      30.57R                  
NEW BERN       FAIR      22  10  60 CALM      30.58R                  
RICHLANDS      FAIR      18  13  80 S3        30.58R                  
ROCKY MOUNT    FAIR      19  11  70 CALM      30.57R                  
WASHINGTON     FAIR      19   8  60 CALM      30.58R                  
WHITEVILLE     NOT AVBL                                               

$$

AMZ130-135-150-152-154-156-158-170-250-252-270-ANZ085-086-088-633-658-670-220500-
MARINE OBSERVATIONS
  
STATION/POSITION TIME  TEMP    WIND        PRES    WAVE   SWELL
                       AIR SEA DIR/SP/G            HT/PER HT/PER
                 (UTC) (F)     (DEG/KT/KT) (MB)    (FT/S) (FT/S)
64 E VA BEACH    0350   29 48  320/ 23/ 31 1032.6   10/ 7
DUCK             0400   27 42  330/ 23/ 26 1033.5
2 E DUCK         0400      45                N/A     5/ 7
10 NE DUCK       0345      46                N/A     7/ 6   2/11
OREGON INLET     0400   27 40  320/ 13/ 16 1034.2
13E OREGON INLT  0346      46                N/A     8/ 8   5/ 8
HATTERAS CG      0400   30 44  330/ 22/ 26 1033.9
DIAMOND BUOY     NOT AVBL
CAPE LOOKOUT     0400          360/ 15/ 17 1034.7
BEAUFORT LAB     0400   29 48   10/  8/ 10 1035.3
30 SE NEW RVR IN 0408   34 59   30/ 16/ 23 1033.6
30 SE NEW RVR IN 0400      59                N/A     4/11   2/11
27 SE WRIGHTSVLE 0408   35 58   30/ 16/ 23 1034.7
5 SE WRIGHTSVLE  0308   34 56   20/ 14/ 21 1034.4
27 SE WRIGHTSVL  0408   35 58   30/ 16/ 23 1034.7
FRYING PAN BUOY  0410   38 64   20/ 17/ 23 1035.0
225 S CAPE HAT   0410                      1030.2
41 SE CHARLESTON 0410      61   30/ 16/ 21 1033.7

$$